Domov               UVHVVR             MKGP            O straneh              
ZDRAVSTVENO VARSTVO RASTLIN
  MREŽA AGROMET. POSTAJ
 ► PROGNOSTIČNA OBVESTILA
AGROMETEOROLOŠKI PODATKI -
ARSO
OBVLADOVANJE TVEGANJ ZARADI
NEUGODNIH VREMENSKIH RAZMER
  ► NARAVNE NESREČE
  ► SUŠA/MOČA
  ► NAMAKANJE
  ► ŽLED (gozdarstvo)
KARTOGRAFSKI PRIKAZI
SPLETNE POVEZAVE
PROJEKTI IN PUBLIKACIJE

AGROMETEOROLOŠKA MREŽA: VREMENSKE POSTAJE IN FENOLOŠKA OPAZOVANJA

Pregled podatkov za lokacijo Virštanj, meteorološka postaja 39749

Pregled senzorjev na lokaciji

ID Ime Zadnja
vrednost
Datum
zadnje
spremembe
Tip
senzorja
3124 Temperatura 2 m ( °C) 17,83 °C 19.8.2017 19:30 50YA
3125 Relativna vlaga 2 m (% RH) 78,73 % RH 19.8.2017 19:30 50YA
3127 Padavine 0.2 mm (mm) 0 mm 19.8.2017 19:30 Rain-O-Matic

Pregled podatkov zadnjih 24 ur

Zap.
št.
Datum in čas Virštanj
Padavine
0.2
mm
Relativna
vlaga
2
m
Temperatura
2
m
0 19.8.2017 18:30 0 78,73 17,83
1 19.8.2017 18:00 0,2 77,97 18,17
2 19.8.2017 17:30 0 74,33 18,8
3 19.8.2017 17:00 0 71,5 19,56
4 19.8.2017 16:30 0 70,55 19,9
5 19.8.2017 16:00 0 74,75 20,17
6 19.8.2017 15:30 0 79,34 20,37
7 19.8.2017 15:00 0 73,36 20,76
8 19.8.2017 14:30 0 64,32 22,47
9 19.8.2017 14:00 0 63,98 22,37
10 19.8.2017 13:30 0 65,57 22,78
11 19.8.2017 13:00 0 68,35 22,42
12 19.8.2017 12:30 0 65,47 23,1
13 19.8.2017 12:00 0 62,39 23,91
14 19.8.2017 11:30 0 60,32 24,47
15 19.8.2017 11:00 0 59,44 24,88
16 19.8.2017 10:30 0 59,93 24,86
17 19.8.2017 10:00 0 60,02 24,64
18 19.8.2017 09:30 0 58,17 24,88
19 19.8.2017 09:00 0 56,39 25,27
20 19.8.2017 08:30 0 53,87 26,28
21 19.8.2017 08:00 0 56,21 25,45
22 19.8.2017 07:30 0 62,2 24,22
23 19.8.2017 07:00 0 64,32 21,95
24 19.8.2017 06:30 0 60,2 22,59
25 19.8.2017 06:00 0 62,25 21,59
26 19.8.2017 05:30 0 61,05 21,71
27 19.8.2017 05:00 0 62,52 21,32
28 19.8.2017 04:30 0 62,32 21,25
29 19.8.2017 04:00 0 59,22 21,68
30 19.8.2017 03:30 0 60,22 21,29
31 19.8.2017 03:00 0 54,97 22,61
32 19.8.2017 02:30 0 52,87 23,27
33 19.8.2017 02:00 0 53,68 23,15
34 19.8.2017 01:30 0 51,99 23,61
35 19.8.2017 01:00 0 50,77 23,79
36 19.8.2017 00:30 0 49,91 23,83
37 19.8.2017 00:00 0 47,84 24,59
38 18.8.2017 23:30 0 44,44 25,57
39 18.8.2017 23:00 0 42,88 25,93
40 18.8.2017 22:30 0 41,56 26,32
41 18.8.2017 22:00 0 44,64 25,74
42 18.8.2017 21:30 0 46,74 25,98
43 18.8.2017 21:00 0 49,87 25,49
© 2011 Ministrstvo za kmetijstvo, gozdarstvo in prehrano. Vse pravice pridržane.